Terminal Aerodrome Forecast
Issued by NWS

Current Version | Previous Version | Graphics & Text | Print | Product List | Glossary On
Versions: 1 2 3 4 5 6 7 8 9 10 11 12 13 14 15 16 17 18 19 20 21 22 23 24
000
FTUS41 KILN 241000 AAA
TAFLUK
TAF AMD
KLUK 241001Z 2410/2506 04008KT P6SM SCT018 OVC050
      TEMPO 2410/2414 OVC018
     FM241400 06007KT P6SM OVC028
     FM241700 08008KT P6SM VCSH BKN035
     FM250200 12009KT P6SM VCSH OVC050=

USA.gov is the U.S. government's official web portal to all federal, state and local government web resources and services.